This is the latest recevied weather packets stored in our database for station/object KF4UQS-14. If no packets are shown the sender has not sent any weather packets the latest 10 day(s).
| Time | Temp. | Humidity | Pressure | Rain* | Wind** | Luminosity | Snow |
|---|---|---|---|---|---|---|---|
| 1778266409 | 17.78° C | 58% | 1016.4 hPa | 0 mm | - | 703 W/m² | - |
| 1778266106 | 17.78° C | 59% | 1016.5 hPa | 0 mm | - | 715 W/m² | - |
| 1778265803 | 17.78° C | 57% | 1016.4 hPa | 0 mm | - | 722 W/m² | - |
| 1778265500 | 17.22° C | 57% | 1016.5 hPa | 0 mm | - | 728 W/m² | - |
| 1778265196 | 17.78° C | 59% | 1016.6 hPa | 0 mm | - | 732 W/m² | - |
| 1778264892 | 17.78° C | 58% | 1016.6 hPa | 0 mm | - | 738 W/m² | - |
| 1778264589 | 17.78° C | 59% | 1016.6 hPa | 0 mm | - | 738 W/m² | - |
| 1778264285 | 17.78° C | 59% | 1016.6 hPa | 0 mm | - | 752 W/m² | - |
| 1778263983 | 18.33° C | 59% | 1016.5 hPa | 0 mm | - | 751 W/m² | - |
| 1778263679 | 17.78° C | 60% | 1016.7 hPa | 0 mm | - | 776 W/m² | - |
| 1778263376 | 17.78° C | 56% | 1016.8 hPa | 0 mm | - | 765 W/m² | - |
| 1778263072 | 17.78° C | 59% | 1016.7 hPa | 0 mm | - | 787 W/m² | - |
| 1778262768 | 18.33° C | 58% | 1016.8 hPa | 0 mm | - | 806 W/m² | - |
| 1778262467 | 17.78° C | 60% | 1016.8 hPa | 0 mm | - | 796 W/m² | - |
| 1778262164 | 18.33° C | 58% | 1016.9 hPa | 0 mm | - | 798 W/m² | - |
| 1778261860 | 17.78° C | 59% | 1016.8 hPa | 0 mm | - | 803 W/m² | - |
| 1778261556 | 18.33° C | 60% | 1017 hPa | 0 mm | - | 806 W/m² | - |
| 1778261253 | 17.78° C | 62% | 1017 hPa | 0 mm | - | 830 W/m² | - |
| 1778260950 | 18.33° C | 59% | 1017.1 hPa | 0 mm | - | 844 W/m² | - |
| 1778260647 | 17.78° C | 59% | 1017.3 hPa | 0 mm | - | 820 W/m² | - |
| 1778260342 | 18.33° C | 57% | 1017.3 hPa | 0 mm | - | 806 W/m² | - |
| 1778260040 | 18.33° C | 59% | 1017.2 hPa | 0 mm | - | 806 W/m² | - |
| 1778259738 | 18.33° C | 58% | 1017.3 hPa | 0 mm | - | 806 W/m² | - |
| 1778259434 | 18.33° C | 58% | 1017.3 hPa | 0 mm | - | 806 W/m² | - |
| 1778259131 | 17.78° C | 58% | 1017.4 hPa | 0 mm | - | 806 W/m² | - |
* Rain latest hour (hover to see other rain measurements)
** Current wind speed in m/s (hover to see current wind gust speed)